[[{"header":{"parameterUnit":"m.s-1","parameterCategory":1,"la1":30.2991,"la2":30.254,"lo1":-89.0895,"lo2":-89.0444,"dy":0.0017,"dx":0.0017,"nx":28,"ny":28,"refTime":"2025-01-10T03:00:00:Z","depth":0,"parameterNumber":2,"parameterNumberName":"U-component_of_WINDS"},"data":[0,0,0,0,0,0,0,0,0,0,0,0,0,0,0,0,0,0,0,0,0,0,0,0,0,0,0,0,0,0,0,0,0,0,0,0,0,0,0,0,0,0,0,0,0,0,0,0,0,0,0,0,0,0,0,0,0,0,-4.1606,-4.1606,0,-4.1607,-4.1607,-4.1607,-4.149,-4.1486,-4.1483,-4.148,-4.1483,-4.1486,-4.1489,0,0,0,0,0,0,0,0,0,0,0,0,0,-4.1504,-4.1506,-4.1606,-4.1606,-4.1606,-4.1607,-4.1607,-4.1607,-4.149,-4.1486,-4.1483,-4.1479,-4.1482,-4.1486,-4.149,0,0,0,0,0,0,0,0,0,0,0,0,0,-4.1531,-4.1507,-4.1606,-4.1547,-4.1542,-4.1607,-4.1607,-4.1607,-4.1491,-4.1486,-4.1482,-4.1477,-4.1481,-4.1486,-4.149,-4.1611,0,0,-4.1504,-4.1506,0,0,0,0,0,0,0,0,-4.153,-4.1535,-4.1556,-4.1552,-4.1546,-4.1543,-4.1572,-4.1609,-4.1492,-4.1511,-4.148,-4.1475,-4.1507,-4.1509,-4.152,-4.1611,-4.1611,-4.1504,-4.1507,-4.1509,-4.151,0,0,0,0,0,0,0,-4.1528,-4.1534,-4.1606,-4.1556,-4.155,-4.1522,-4.1521,-4.1578,-4.1535,-4.1509,-4.15,-4.1502,-4.1504,-4.1516,-4.1519,-4.1611,-4.1504,-4.1508,-4.1511,-4.1512,-4.1804,-4.1809,0,0,0,0,0,0,-4.1534,-4.1533,-4.1606,-4.1606,-4.1526,-4.1528,-4.1526,-4.1549,-4.1534,-4.1527,-4.1506,-4.1496,-4.151,-4.1514,-4.1519,-4.1661,-4.1509,-4.1513,-4.1515,-4.1799,-4.1805,-4.1811,0,0,0,0,0,0,-4.1532,-4.1541,-4.1606,-4.1568,-4.1574,-4.1534,-4.1561,-4.1551,-4.1563,-4.1532,-4.1524,-4.1526,-4.1507,-4.1512,-4.1589,-4.1659,-4.1515,-4.1519,-4.1793,-4.1801,-4.1808,-4.1945,0,0,0,0,0,0,-4.153,-4.1541,-4.1586,-4.1569,-4.1576,-4.1676,-4.1565,-4.1555,-4.1571,-4.1559,-4.1549,-4.1543,-4.1504,-4.1583,-4.1594,-4.1663,-4.1522,-4.1787,-4.1797,-4.1806,-4.1935,-4.1957,-4.1976,0,0,0,0,0,-4.1526,-4.1625,-4.1589,-4.1599,-4.1631,-4.1681,-4.1684,-4.1637,-4.1577,-4.1623,-4.1603,-4.1543,-4.165,-4.1592,-4.1603,-4.1674,-4.1782,-4.1794,-4.1805,-4.1925,-4.1952,-4.1975,0,0,0,0,0,0,-4.1651,-4.1622,-4.1582,-4.1678,-4.1683,-4.1661,-4.1716,-4.1667,-4.1689,-4.1677,-4.1618,-4.1616,-4.1703,-4.1696,-4.1633,-4.1792,-4.1705,-4.172,-4.1793,-4.1819,-4.1839,-4.184,-4.1526,0,0,0,0,0,-4.169,-4.1732,-4.1704,-4.1791,-4.1796,-4.1756,-4.1776,-4.1739,-4.1742,-4.1743,-4.1729,-4.1734,-4.1769,-4.1793,-4.1823,-4.1933,-4.193,-4.1987,-4.2008,-4.2025,-4.2038,-4.2097,-4.2123,-4.1848,-4.1848,-4.1848,0,0,-4.177,-4.1759,-4.1789,-4.1816,-4.1815,-4.1861,-4.1759,-4.1811,-4.1844,-4.1751,-4.1823,-4.1813,-4.1816,-4.191,-4.195,-4.1906,-4.2114,-4.204,-4.2054,-4.2057,-4.2112,-4.2138,-4.2161,-4.1856,-4.1854,-4.1853,0,0,-4.194,-4.1936,-4.2009,-4.2011,-4.2011,-4.1984,-4.2002,-4.1988,-4.1978,-4.2049,-4.1981,-4.202,-4.2081,-4.2086,-4.2097,-4.2271,-4.2217,-4.2282,-4.2391,-4.2449,-4.2471,-4.249,-4.2553,-4.2577,-4.2295,-4.2296,-4.2296,0,-4.2041,-4.2106,-4.2053,-4.211,-4.2125,-4.2042,-4.2117,-4.2121,-4.2132,-4.2144,-4.2095,-4.217,-4.2166,-4.2261,-4.2304,-4.2315,-4.2334,-4.2283,-4.2472,-4.249,-4.2507,-4.2567,-4.2591,-4.2304,-4.2303,-4.2302,-4.2301,0,-4.223,-4.2276,-4.2335,-4.2348,-4.2369,-4.2435,-4.2393,-4.242,-4.2382,-4.2361,-4.2436,-4.2428,-4.2456,-4.2476,-4.2438,-4.2566,-4.2539,-4.2482,-4.2394,-4.2542,-4.2598,-4.262,-4.2315,-4.2312,-4.231,-4.2308,0,0,-4.2478,-4.2462,-4.2484,-4.249,-4.2485,-4.2521,-4.2583,-4.261,-4.2636,-4.2647,-4.2699,-4.2753,-4.27,-4.2712,-4.2675,-4.2726,-4.2867,-4.2662,-4.2662,-4.2702,-4.301,-4.3054,-4.3081,-4.2831,-4.2835,-4.2839,-4.301,0,-4.2645,-4.275,-4.2705,-4.2815,-4.2859,-4.2782,-4.2836,-4.284,-4.2823,-4.2858,-4.2838,-4.2878,-4.2804,-4.2811,-4.2858,-4.284,-4.2928,-4.2827,-4.2881,-4.2883,-4.2884,-4.311,-4.3157,-4.3319,-4.3031,-4.3035,-4.3037,0,-4.2852,-4.2872,-4.2987,-4.2976,-4.2993,-4.3043,-4.3065,-4.3099,-4.3102,-4.3085,-4.31,-4.3052,-4.3114,-4.3026,-4.3112,-4.3044,-4.3063,-4.3058,-4.3063,-4.3067,-4.297,-4.3122,-4.3369,-4.3394,-4.3071,-4.3068,-4.3066,0,-4.3024,-4.3079,-4.3156,-4.3163,-4.3151,-4.3189,-4.3186,-4.3184,-4.3204,-4.3224,-4.3236,-4.3263,-4.3278,-4.3301,-4.3262,-4.3201,-4.3354,-4.3262,-4.3343,-4.3345,-4.3379,-4.3378,-4.3635,-4.339,-4.339,-4.3389,-4.3389,0,-4.3215,-4.3289,-4.3233,-4.328,-4.3361,-4.3309,-4.3391,-4.3379,-4.3379,-4.3424,-4.3358,-4.3402,-4.3347,-4.3386,-4.3355,-4.3432,-4.3439,-4.3428,-4.342,-4.3435,-4.3437,-4.3448,-4.3436,-4.3396,-4.3394,-4.3393,-4.3392,0,-4.3422,-4.3387,-4.3465,-4.3448,-4.3446,-4.3507,-4.3492,-4.3536,-4.3514,-4.3571,-4.3582,-4.3548,-4.359,-4.3553,-4.3593,-4.3573,-4.3676,-4.365,-4.3675,-4.3668,-4.3752,-4.3746,-4.4026,-4.4061,-4.3793,-4.3795,-4.3797,0,-4.3546,-4.3602,-4.3591,-4.3616,-4.3617,-4.3658,-4.3679,-4.3629,-4.3653,-4.3662,-4.3705,-4.3742,-4.3768,-4.384,-4.3819,-4.385,-4.3826,-4.3922,-4.383,-4.3845,-4.383,-4.3828,-4.3834,-4.3941,-4.3945,-4.3947,-4.3949,0,-4.3772,-4.3753,-4.3784,-4.381,-4.3836,-4.3854,-4.3868,-4.3892,-4.3842,-4.3872,-4.3914,-4.3935,-4.3977,-4.4015,-4.404,-4.4037,-4.3987,-4.3978,-4.3999,-4.4016,-4.4029,-4.4025,-4.3727,-4.3972,-4.397,-4.3968,-4.3967,-4.3966,-4.3943,-4.3989,-4.3989,-4.4027,-4.4032,-4.4046,-4.4086,-4.407,-4.4104,-4.4134,-4.4103,-4.4155,-4.4158,-4.4186,-4.4191,-4.4231,-4.4191,-4.4221,-4.4229,-4.4237,-4.425,-4.4021,-4.4235,-4.4235,-4.4234,-4.4233,-4.4233,0,-4.4167,-4.4163,-4.4198,-4.4219,-4.425,-4.4198,-4.421,-4.4239,-4.4286,-4.4293,-4.4321,-4.437,-4.4407,-4.439,-4.4422,-4.4458,-4.4436,-4.4469,-4.4466,-4.4467,-4.4283,-4.4263,-4.4487,-4.4487,-4.4486,-4.4486,-4.4486,-4.4486,-4.4287,-4.4363,-4.4344,-4.4422,-4.4418,-4.4468,-4.448,-4.4494,-4.4499,-4.4558,-4.4588,-4.4576,-4.4574,-4.4606,-4.4638,-4.4632,-4.4648,-4.469,-4.4676,-4.4505,-4.448,-4.4456,-4.4437,-4.4693,-4.4694,-4.4856,-4.4858,-4.4859]},{"header":{"parameterUnit":"m.s-1","parameterCategory":1,"la1":30.2991,"la2":30.254,"lo1":-89.0895,"lo2":-89.0444,"dy":0.0017,"dx":0.0017,"nx":28,"ny":28,"refTime":"2025-01-10T03:00:00:Z","depth":0,"parameterNumber":3,"parameterNumberName":"V-component_of_WINDS"},"data":[0,0,0,0,0,0,0,0,0,0,0,0,0,0,0,0,0,0,0,0,0,0,0,0,0,0,0,0,0,0,0,0,0,0,0,0,0,0,0,0,0,0,0,0,0,0,0,0,0,0,0,0,0,0,0,0,0,0,-0.4473,-0.4473,0,-0.4477,-0.4477,-0.4477,-0.4445,-0.4445,-0.4444,-0.4443,-0.4448,-0.4449,-0.445,0,0,0,0,0,0,0,0,0,0,0,0,0,-0.4437,-0.4438,-0.4473,-0.4473,-0.4473,-0.4477,-0.4477,-0.4477,-0.4446,-0.4445,-0.4443,-0.4442,-0.4448,-0.4449,-0.445,0,0,0,0,0,0,0,0,0,0,0,0,0,-0.4448,-0.4439,-0.4473,-0.4458,-0.4456,-0.4477,-0.4477,-0.4477,-0.4446,-0.4445,-0.4443,-0.4442,-0.4447,-0.4449,-0.445,-0.4486,0,0,-0.4455,-0.4455,0,0,0,0,0,0,0,0,-0.4448,-0.445,-0.446,-0.4459,-0.4457,-0.4459,-0.4467,-0.448,-0.4446,-0.445,-0.4443,-0.4441,-0.4453,-0.4454,-0.4458,-0.4486,-0.4486,-0.4455,-0.4456,-0.4456,-0.4457,0,0,0,0,0,0,0,-0.4447,-0.4449,-0.4475,-0.446,-0.4458,-0.4451,-0.4451,-0.4469,-0.4459,-0.4449,-0.4447,-0.4448,-0.4452,-0.4456,-0.4457,-0.4486,-0.4455,-0.4456,-0.4457,-0.4457,-0.4544,-0.4546,0,0,0,0,0,0,-0.4448,-0.4449,-0.4474,-0.4475,-0.4449,-0.4452,-0.4452,-0.446,-0.4459,-0.4457,-0.4449,-0.4447,-0.4454,-0.4456,-0.4458,-0.45,-0.4456,-0.4458,-0.4458,-0.4543,-0.4545,-0.4546,0,0,0,0,0,0,-0.4448,-0.4451,-0.4474,-0.4461,-0.4464,-0.4454,-0.4463,-0.4461,-0.4465,-0.4458,-0.4456,-0.4455,-0.4453,-0.4455,-0.4479,-0.4499,-0.4458,-0.446,-0.4541,-0.4544,-0.4546,-0.4584,0,0,0,0,0,0,-0.4447,-0.4451,-0.4464,-0.4462,-0.4464,-0.4496,-0.4464,-0.4462,-0.4468,-0.4464,-0.4464,-0.4462,-0.4453,-0.4477,-0.448,-0.4501,-0.4461,-0.4539,-0.4542,-0.4545,-0.4581,-0.4587,-0.4592,0,0,0,0,0,-0.4446,-0.4475,-0.4465,-0.4469,-0.4481,-0.4497,-0.4498,-0.4486,-0.4469,-0.4483,-0.4478,-0.4462,-0.4496,-0.448,-0.4483,-0.4504,-0.4538,-0.4542,-0.4545,-0.4578,-0.4586,-0.4592,0,0,0,0,0,0,-0.4481,-0.4475,-0.4464,-0.4493,-0.4496,-0.4492,-0.4508,-0.4495,-0.4503,-0.4499,-0.4484,-0.4484,-0.451,-0.4509,-0.4491,-0.4539,-0.4514,-0.4518,-0.4538,-0.4546,-0.4551,-0.4552,-0.4462,0,0,0,0,0,-0.4492,-0.4505,-0.4499,-0.4526,-0.4527,-0.4518,-0.4524,-0.4515,-0.4517,-0.4518,-0.4515,-0.4518,-0.4529,-0.4537,-0.4547,-0.458,-0.458,-0.4596,-0.4602,-0.4607,-0.4611,-0.4628,-0.4635,-0.4557,-0.4557,-0.4557,0,0,-0.4515,-0.4513,-0.4523,-0.4533,-0.4534,-0.4548,-0.4519,-0.4535,-0.4546,-0.452,-0.4543,-0.4541,-0.4543,-0.4571,-0.4584,-0.4571,-0.4632,-0.4611,-0.4615,-0.4616,-0.4632,-0.464,-0.4646,-0.4559,-0.4559,-0.4558,0,0,-0.4565,-0.4565,-0.4587,-0.4588,-0.459,-0.4583,-0.4589,-0.4586,-0.4584,-0.4606,-0.4587,-0.4599,-0.4619,-0.4622,-0.4625,-0.4675,-0.4661,-0.4679,-0.471,-0.4727,-0.4733,-0.4739,-0.4757,-0.4764,-0.4683,-0.4683,-0.4683,0,-0.4594,-0.4615,-0.46,-0.4618,-0.4623,-0.46,-0.4622,-0.4624,-0.463,-0.4634,-0.4619,-0.4644,-0.4643,-0.4672,-0.4684,-0.4688,-0.4694,-0.468,-0.4733,-0.4739,-0.4744,-0.4761,-0.4768,-0.4685,-0.4685,-0.4685,-0.4685,0,-0.465,-0.4665,-0.4682,-0.4688,-0.4694,-0.4714,-0.4703,-0.4712,-0.4701,-0.4696,-0.4718,-0.4717,-0.4727,-0.4733,-0.4723,-0.476,-0.4752,-0.4736,-0.4712,-0.4754,-0.477,-0.4776,-0.4688,-0.4688,-0.4687,-0.4686,0,0,-0.4723,-0.472,-0.4727,-0.4729,-0.4728,-0.474,-0.4758,-0.4767,-0.4775,-0.4779,-0.4795,-0.4811,-0.4796,-0.4801,-0.4791,-0.4806,-0.4846,-0.4788,-0.4787,-0.4799,-0.4887,-0.49,-0.4908,-0.4836,-0.4837,-0.4838,-0.4887,0,-0.4772,-0.4804,-0.4792,-0.4825,-0.4838,-0.4816,-0.4833,-0.4834,-0.483,-0.484,-0.4835,-0.4848,-0.4826,-0.4829,-0.4843,-0.4838,-0.4864,-0.4834,-0.4851,-0.4852,-0.4852,-0.4916,-0.493,-0.4977,-0.4893,-0.4894,-0.4895,0,-0.4834,-0.484,-0.4875,-0.4872,-0.4877,-0.4892,-0.4899,-0.491,-0.4911,-0.4907,-0.4911,-0.4898,-0.4916,-0.4891,-0.4916,-0.4897,-0.4902,-0.4901,-0.4903,-0.4904,-0.4877,-0.4921,-0.4991,-0.4999,-0.4905,-0.4904,-0.4903,0,-0.4885,-0.4902,-0.4925,-0.4927,-0.4924,-0.4935,-0.4935,-0.4935,-0.4941,-0.4947,-0.4951,-0.4959,-0.4964,-0.497,-0.4959,-0.4942,-0.4986,-0.496,-0.4984,-0.4984,-0.4995,-0.4995,-0.5068,-0.4997,-0.4997,-0.4997,-0.4997,0,-0.4941,-0.4964,-0.4947,-0.4962,-0.4986,-0.497,-0.4995,-0.4992,-0.4992,-0.5005,-0.4986,-0.4999,-0.4984,-0.4995,-0.4986,-0.5009,-0.5011,-0.5008,-0.5006,-0.501,-0.5011,-0.5015,-0.5012,-0.4999,-0.4999,-0.4998,-0.4998,0,-0.5003,-0.4992,-0.5016,-0.5011,-0.5011,-0.5029,-0.5025,-0.5038,-0.5031,-0.5048,-0.5051,-0.5042,-0.5054,-0.5043,-0.5055,-0.505,-0.508,-0.5072,-0.5079,-0.5078,-0.5102,-0.51,-0.5181,-0.5191,-0.5113,-0.5114,-0.5115,0,-0.504,-0.5056,-0.5053,-0.5061,-0.5061,-0.5073,-0.5079,-0.5065,-0.5072,-0.5075,-0.5087,-0.5098,-0.5106,-0.5127,-0.5121,-0.513,-0.5123,-0.5151,-0.5125,-0.5129,-0.5124,-0.5124,-0.5126,-0.5157,-0.5158,-0.5158,-0.5159,0,-0.5107,-0.5101,-0.5111,-0.5118,-0.5126,-0.5131,-0.5135,-0.5142,-0.5127,-0.5136,-0.5149,-0.5155,-0.5167,-0.5178,-0.5185,-0.5184,-0.517,-0.5167,-0.5173,-0.5179,-0.5182,-0.5181,-0.5095,-0.5166,-0.5165,-0.5165,-0.5164,-0.5164,-0.5158,-0.5171,-0.5171,-0.5182,-0.5184,-0.5188,-0.52,-0.5195,-0.5205,-0.5213,-0.5204,-0.5219,-0.522,-0.5228,-0.5229,-0.5241,-0.5229,-0.5238,-0.524,-0.5243,-0.5246,-0.518,-0.5242,-0.5241,-0.5241,-0.5241,-0.5241,0,-0.5225,-0.5223,-0.5234,-0.524,-0.5248,-0.5233,-0.5236,-0.5245,-0.5258,-0.526,-0.5268,-0.5282,-0.5292,-0.5287,-0.5296,-0.5307,-0.53,-0.531,-0.5309,-0.5309,-0.5256,-0.525,-0.5315,-0.5315,-0.5315,-0.5315,-0.5315,-0.5315,-0.5261,-0.5283,-0.5277,-0.53,-0.5298,-0.5313,-0.5316,-0.532,-0.5321,-0.5338,-0.5346,-0.5342,-0.5342,-0.535,-0.5359,-0.5357,-0.5362,-0.5374,-0.537,-0.532,-0.5313,-0.5306,-0.5301,-0.5375,-0.5375,-0.5423,-0.5423,-0.5423]}]]